sat.trackr.live / text

‹ back to catalog

IRIDE-MS2-HEO-1

NORAD 62697 · 2025-009CS

PAYLOAD ACTIVE UNKNOWN

§ Identity

Operator
Country
IT
Launch date
2025-01-14
Launch site
AFWTR
Launch vehicle
Mass (kg)
RCS (m²)

External: N2YO · Heavens-Above · Gunter

§ Orbital elements

Epoch: 2026-05-25T04:37:25.152672Z

Period
96.37 min
Inclination
97.7045°
Eccentricity
0.0003867
Mean motion
14.94300795 rev/d
Perigee alt
581.9 km
Apogee alt
587.2 km
Semi-major
6,962.7 km
B*
1.3181e-4
RAAN
223.9234°
Arg perigee
88.1662°
Mean anomaly
272.0001°
Rev number
7,390

§ Raw data

IRIDE-MS2-HEO-11 62697U 25009CS  26145.19265223  .00001360  00000+0  13181-3 0  99902 62697  97.7045 223.9234 0003867  88.1662 272.0001 14.94300795 73907

JSON: /api/v1/satellites/62697 · /tle

For live sub-satellite position, see the globe view (requires WebGL).

§ Visibility from observer

Set your observer location to see the next 7 days of passes ≥ 10°. The values pass through the URL so the page stays shareable.

No JS? Fill the form by hand. The geolocation button needs JavaScript.

§ Radio — SatNOGS DB

ModeDescriptionDownlinkUplink
FM Mode S - Transmitter 2.264 GHz
FM Mode X - Transmitter 8.180 GHz

2 transmitters · refreshed weekly from db.satnogs.org